TimeCST,TemperatureF,Dew PointF,Humidity,Sea Level PressureIn,VisibilityMPH,Wind Direction,Wind SpeedMPH,Gust SpeedMPH,PrecipitationIn,Events,Conditions,WindDirDegrees,DateUTC
12:53 AM,52.0,21.0,30,29.79,10.0,SW,11.5,-,N/A,,Clear,220,2012-12-08 06:53:00
1:53 AM,53.1,21.0,29,29.78,10.0,SW,11.5,-,N/A,,Clear,220,2012-12-08 07:53:00
2:53 AM,52.0,19.9,28,29.78,10.0,SW,13.8,-,N/A,,Clear,220,2012-12-08 08:53:00
3:53 AM,52.0,21.0,30,29.79,10.0,SW,12.7,-,N/A,,Clear,220,2012-12-08 09:53:00
4:53 AM,52.0,21.0,30,29.78,10.0,SW,11.5,-,N/A,,Clear,220,2012-12-08 10:53:00
5:53 AM,51.1,21.0,31,29.81,10.0,SW,11.5,-,N/A,,Clear,220,2012-12-08 11:53:00
6:53 AM,51.1,19.9,29,29.83,10.0,SW,15.0,-,N/A,,Clear,220,2012-12-08 12:53:00
7:53 AM,50.0,19.9,31,29.85,10.0,SW,12.7,-,N/A,,Clear,220,2012-12-08 13:53:00
8:53 AM,57.9,19.9,23,29.85,10.0,SW,11.5,-,N/A,,Clear,220,2012-12-08 14:53:00
9:53 AM,66.9,23.0,19,29.84,10.0,WSW,10.4,-,N/A,,Clear,240,2012-12-08 15:53:00
10:53 AM,71.1,26.1,19,29.86,10.0,WSW,9.2,-,N/A,,Clear,240,2012-12-08 16:53:00
11:53 AM,73.9,27.0,18,29.83,10.0,West,12.7,20.7,N/A,,Clear,270,2012-12-08 17:53:00
12:53 PM,73.9,26.1,17,29.80,10.0,SW,8.1,-,N/A,,Clear,230,2012-12-08 18:53:00
1:53 PM,75.0,25.0,16,29.75,10.0,WSW,6.9,17.3,N/A,,Clear,250,2012-12-08 19:53:00
2:53 PM,75.9,23.0,14,29.73,10.0,WSW,9.2,17.3,N/A,,Clear,250,2012-12-08 20:53:00
3:53 PM,75.9,23.0,14,29.72,10.0,WSW,4.6,-,N/A,,Clear,240,2012-12-08 21:53:00
4:53 PM,73.9,16.0,11,29.72,10.0,WSW,9.2,-,N/A,,Clear,240,2012-12-08 22:53:00
5:53 PM,66.9,19.0,16,29.75,10.0,West,9.2,-,N/A,,Clear,260,2012-12-08 23:53:00
6:53 PM,63.0,19.9,19,29.76,10.0,West,9.2,-,N/A,,Clear,260,2012-12-09 00:53:00
7:53 PM,59.0,19.0,21,29.79,10.0,SSW,10.4,-,N/A,,Clear,210,2012-12-09 01:53:00
8:53 PM,59.0,19.0,21,29.79,10.0,SSW,12.7,-,N/A,,Clear,210,2012-12-09 02:53:00
9:53 PM,57.9,19.9,23,29.78,10.0,SSW,11.5,-,N/A,,Clear,210,2012-12-09 03:53:00
10:53 PM,55.9,21.0,26,29.79,10.0,SSW,11.5,-,N/A,,Clear,210,2012-12-09 04:53:00
11:53 PM,54.0,21.9,29,29.78,10.0,SW,11.5,-,N/A,,Clear,220,2012-12-09 05:53:00